sat.trackr.live / text

‹ back to catalog

SDGSAT 1

NORAD 49387 · 2021-100A

PAYLOAD ACTIVE UNKNOWN

§ Identity

Operator
Country
PRC
Launch date
2021-11-05
Launch site
TAISC
Launch vehicle
Mass (kg)
RCS (m²)

External: N2YO · Heavens-Above · Gunter

§ Orbital elements

Epoch: 2026-05-25T04:30:21.465216Z

Period
94.75 min
Inclination
97.2653°
Eccentricity
0.0008588
Mean motion
15.19791611 rev/d
Perigee alt
500.6 km
Apogee alt
512.4 km
Semi-major
6,884.6 km
B*
1.2890e-4
RAAN
192.9895°
Arg perigee
25.8004°
Mean anomaly
334.3658°
Rev number
25,242

§ Raw data

SDGSAT 11 49387U 21100A   26145.18774844  .00002696  00000+0  12890-3 0  99912 49387  97.2653 192.9895 0008588  25.8004 334.3658 15.19791611252424

JSON: /api/v1/satellites/49387 · /tle

For live sub-satellite position, see the globe view (requires WebGL).

§ Visibility from observer

Set your observer location to see the next 7 days of passes ≥ 10°. The values pass through the URL so the page stays shareable.

No JS? Fill the form by hand. The geolocation button needs JavaScript.

§ Radio — SatNOGS DB

ModeDescriptionDownlinkUplink
FM S-band telemetry 2.210 GHz

1 transmitter · refreshed weekly from db.satnogs.org